Mount Pleasant, IA

1:19 AM CDT on September 23, 2017 (GMT -0500)
Mount Pleasant Municipal

Weather History for KMPZ - March, 2013

Change the Weather History Date:

Sunday, March 24, 2013

  Actual Average Record
Temperature  
Mean Temperature 34 °F -  
Max Temperature 36 °F 52 °F 80 °F (1967)
Min Temperature 33 °F 30 °F 4 °F (1974)
Degree Days  
Heating Degree Days 30    
Moisture  
Dew Point 29 °F    
Average Humidity 80    
Maximum Humidity 83    
Minimum Humidity 69    
Precipitation  
Precipitation 0.00 in - - ()
Sea Level Pressure  
Sea Level Pressure 29.86 in    
Wind  
Wind Speed 13 mph (North)    
Max Wind Speed 20 mph    
Max Gust Speed 24 mph    
Visibility 2 miles    
Events Rain , Snow    
Averages and records for this station are not official NWS values.
T = Trace of Precipitation, MM = Missing Value Source: NWS Daily Summary

Daily Weather History Graph

Daily Weather History Graph

Search for Another Location

Airport or City:

Trip Planner

Search our weather history database for the weather conditions in past years. The results will help you decide how hot, cold, wet, or windy it might be!

Date:

Astronomy

Mar. 24, 2013 Rise Set
Actual Time 7:02 AM CDT 7:22 PM CDT
Civil Twilight 6:34 AM CDT 7:50 PM CDT
Nautical Twilight 6:02 AM CDT 8:22 PM CDT
Astronomical Twilight 5:29 AM CDT 8:55 PM CDT
Moon 4:50 PM CDT (3/24) 5:13 AM CDT (3/24)
Length of Visible Light 13h 15m
Length of Day
12h 20m
Waxing Gibbous, 92% of the Moon is Illuminated
Mar 24
Waxing Gibbous
Mar 27
Full
Apr 2
Last Quarter
Apr 10
New
Apr 18
First Quarter

Hourly Weather History & Observations

Time (CDT) Temp. Windchill Dew Point Humidity Pressure Visibility Wind Dir Wind Speed Gust Speed Precip Events Conditions
12:15 AM 36.7 °F 29.4 °F 27.5 °F 69% 30.00 in 7.0 mi NE 10.4 mph - N/A Rain Light Rain
12:35 AM 36.5 °F 29.2 °F 28.0 °F 71% 30.00 in 2.5 mi NE 10.4 mph 16.1 mph N/A Snow Light Snow
12:55 AM 35.6 °F 28.6 °F 28.9 °F 77% 29.99 in 2.0 mi NE 9.2 mph - N/A Snow Light Snow
1:15 AM 35.6 °F 29.9 °F 29.3 °F 78% 29.98 in 2.0 mi NE 6.9 mph - N/A Snow Light Snow
1:35 AM 35.2 °F 28.8 °F 29.8 °F 81% 29.99 in 2.0 mi ENE 8.1 mph - N/A Snow Light Snow
1:55 AM 35.1 °F 27.9 °F 29.7 °F 81% 29.99 in 2.0 mi ENE 9.2 mph - N/A Snow Light Snow
2:35 AM 34.7 °F 26.4 °F 29.3 °F 81% 29.97 in 1.8 mi NE 11.5 mph - N/A Snow Light Snow
2:55 AM 34.7 °F 25.1 °F 29.3 °F 81% 29.96 in 3.0 mi NNE 15.0 mph - N/A Snow Light Snow
3:15 AM 34.7 °F 26.4 °F 29.3 °F 81% 29.94 in 3.0 mi NNE 11.5 mph - N/A Snow Light Snow
3:35 AM 34.2 °F 25.7 °F 29.3 °F 82% 29.93 in 2.5 mi NNE 11.5 mph - N/A Snow Light Snow
3:55 AM 34.2 °F 24.4 °F 29.3 °F 82% 29.91 in 2.5 mi NNE 15.0 mph - N/A Snow Light Snow
4:15 AM 34.0 °F 25.0 °F 29.1 °F 82% 29.91 in 3.0 mi NNE 12.7 mph - N/A Snow Light Snow
4:35 AM 34.0 °F 26.6 °F 29.3 °F 83% 29.92 in 3.0 mi NNE 9.2 mph - N/A Snow Light Snow
4:55 AM 34.2 °F 25.7 °F 28.9 °F 81% 29.91 in 4.0 mi NNE 11.5 mph - N/A   Overcast
5:15 AM 33.8 °F 24.8 °F 28.4 °F 81% 29.90 in 2.5 mi NE 12.7 mph - N/A   Overcast
5:35 AM 33.8 °F 25.3 °F 28.4 °F 81% 29.90 in 3.0 mi NNE 11.5 mph - N/A Snow Light Snow
5:55 AM 33.8 °F 25.8 °F 28.4 °F 81% 29.90 in 5.0 mi NNE 10.4 mph - N/A   Overcast
6:15 AM 33.4 °F 24.8 °F 28.2 °F 81% 29.88 in 7.0 mi NNE 11.5 mph - N/A   Overcast
6:35 AM 33.6 °F 24.1 °F 28.4 °F 81% 29.88 in 5.0 mi NNE 13.8 mph - N/A Snow Light Snow
6:55 AM 33.8 °F 24.8 °F 28.4 °F 81% 29.87 in 5.0 mi NNE 12.7 mph - N/A Snow Light Snow
7:15 AM 33.4 °F 23.1 °F 28.2 °F 81% 29.85 in 7.0 mi NNE 16.1 mph - N/A Snow Light Snow
7:35 AM 33.8 °F 23.5 °F 28.0 °F 79% 29.84 in 5.0 mi North 16.1 mph - N/A   Overcast
7:55 AM 33.8 °F 22.8 °F 28.2 °F 80% 29.81 in 4.0 mi North 18.4 mph 23.0 mph N/A Snow Light Snow
8:15 AM 33.8 °F 22.5 °F 27.9 °F 79% 29.83 in 5.0 mi North 19.6 mph 23.0 mph N/A Snow Light Snow
8:35 AM 34.0 °F 24.2 °F 27.5 °F 77% 29.84 in 5.0 mi North 15.0 mph - N/A Snow Light Snow
8:55 AM 34.2 °F 25.7 °F 27.5 °F 77% 29.85 in 4.0 mi North 11.5 mph - N/A Snow Light Snow
9:15 AM 34.0 °F 25.5 °F 27.9 °F 78% 29.85 in 1.2 mi North 11.5 mph - N/A Snow Light Snow
9:35 AM 33.8 °F 25.3 °F 27.9 °F 79% 29.85 in 1.0 mi North 11.5 mph - N/A Snow Light Snow
9:55 AM 33.8 °F 25.3 °F 28.4 °F 81% 29.85 in 0.8 mi North 11.5 mph - N/A Snow Light Snow
10:15 AM 33.8 °F 24.8 °F 28.4 °F 81% 29.85 in 0.8 mi North 12.7 mph - N/A Snow Light Snow
10:35 AM 33.8 °F 24.3 °F 28.0 °F 79% 29.85 in 0.8 mi North 13.8 mph - N/A Snow Light Snow
10:55 AM 33.8 °F 23.5 °F 27.7 °F 78% 29.84 in 0.8 mi North 16.1 mph - N/A Snow Snow
11:15 AM 33.4 °F 22.7 °F 27.5 °F 79% 29.84 in 0.5 mi North 17.3 mph - N/A Snow Snow
11:35 AM 33.8 °F 23.5 °F 28.2 °F 80% 29.83 in 0.5 mi North 16.1 mph - N/A Snow Light Snow
11:55 AM 34.2 °F 23.3 °F 28.2 °F 79% 29.82 in 0.8 mi North 18.4 mph 21.9 mph N/A Snow Light Snow
12:15 PM 34.5 °F 23.8 °F 28.0 °F 77% 29.82 in 0.8 mi NNW 18.4 mph - N/A Snow Light Snow
12:35 PM 34.7 °F 24.3 °F 28.4 °F 78% 29.81 in 0.8 mi NNW 17.3 mph - N/A Snow Light Snow
12:55 PM 35.1 °F 24.8 °F 28.4 °F 77% 29.80 in 0.8 mi North 17.3 mph - N/A Snow Light Snow
1:15 PM 35.2 °F 25.8 °F 28.6 °F 77% 29.79 in 0.8 mi North 15.0 mph - N/A Snow Light Snow
1:35 PM 35.4 °F 25.3 °F 28.8 °F 77% 29.78 in 0.8 mi North 17.3 mph - N/A Snow Light Snow
1:55 PM 35.6 °F 24.8 °F 29.1 °F 77% 29.78 in 0.8 mi North 19.6 mph 23.0 mph N/A Snow Light Snow
2:15 PM 35.8 °F 26.1 °F 29.1 °F 77% 29.77 in 1.2 mi NNW 16.1 mph - N/A Snow Light Snow
2:35 PM 36.1 °F 27.3 °F 29.3 °F 76% 29.77 in 1.8 mi NNW 13.8 mph - N/A Rain Light Rain
2:55 PM 36.3 °F 26.8 °F 29.7 °F 77% 29.76 in 2.0 mi NNW 16.1 mph - N/A Rain Light Rain
3:15 PM 36.3 °F 26.8 °F 29.5 °F 76% 29.76 in 2.5 mi North 16.1 mph - N/A Rain Light Rain
3:35 PM 36.5 °F 26.7 °F 29.7 °F 76% 29.76 in 2.5 mi NNW 17.3 mph - N/A Snow Light Snow
3:55 PM 36.5 °F 27.0 °F 30.0 °F 77% 29.76 in 1.5 mi NNW 16.1 mph - N/A Snow Light Snow
4:15 PM 36.5 °F 27.4 °F 30.2 °F 78% 29.77 in 1.0 mi NNW 15.0 mph 20.7 mph N/A Snow Light Snow
4:35 PM 36.1 °F 26.5 °F 30.2 °F 79% 29.78 in 0.8 mi NNW 16.1 mph - N/A Snow Light Snow
4:55 PM 36.1 °F 26.5 °F 30.2 °F 79% 29.78 in 0.8 mi NNW 16.1 mph - N/A Snow Light Snow
5:15 PM 35.8 °F 25.7 °F 30.0 °F 80% 29.80 in 0.8 mi NNW 17.3 mph - N/A Snow Light Snow
5:35 PM 35.6 °F 25.9 °F 29.5 °F 78% 29.80 in 1.0 mi North 16.1 mph 21.9 mph N/A Snow Light Snow
5:55 PM 35.6 °F 24.8 °F 30.2 °F 81% 29.81 in 0.8 mi North 19.6 mph 24.2 mph N/A Snow Light Snow
6:15 PM 35.2 °F 25.4 °F 29.8 °F 81% 29.82 in 0.8 mi North 16.1 mph - N/A Snow Light Snow
6:35 PM 35.1 °F 26.9 °F 29.7 °F 81% 29.83 in 0.8 mi NNW 11.5 mph - N/A Snow Light Snow
7:15 PM 34.7 °F 24.7 °F 29.1 °F 80% 29.84 in 1.0 mi NNW 16.1 mph - N/A Snow Light Snow
7:35 PM 34.7 °F 24.7 °F 29.3 °F 81% 29.84 in 1.8 mi North 16.1 mph 23.0 mph N/A Snow Light Snow
7:55 PM 34.3 °F 25.0 °F 29.1 °F 81% 29.85 in 1.2 mi North 13.8 mph - N/A Snow Light Snow
8:15 PM 34.7 °F 25.1 °F 29.7 °F 82% 29.86 in 1.8 mi NNW 15.0 mph - N/A Snow Light Snow
8:35 PM 34.3 °F 25.0 °F 29.3 °F 82% 29.86 in 2.0 mi NNW 13.8 mph 17.3 mph N/A Snow Light Snow
8:55 PM 34.3 °F 23.9 °F 29.3 °F 82% 29.86 in 2.5 mi NNW 17.3 mph 23.0 mph N/A   Overcast
9:15 PM 34.2 °F 25.2 °F 29.1 °F 82% 29.87 in 1.8 mi NNW 12.7 mph - N/A Snow Light Snow
9:35 PM 34.3 °F 24.6 °F 29.3 °F 82% 29.87 in 2.0 mi NNW 15.0 mph - N/A Snow Light Snow
9:55 PM 34.5 °F 25.3 °F 29.3 °F 81% 29.87 in 2.0 mi NNW 13.8 mph - N/A   Overcast
10:15 PM 34.3 °F 24.2 °F 28.9 °F 81% 29.88 in 2.0 mi NNW 16.1 mph - N/A Snow Light Snow
10:35 PM 34.3 °F 25.9 °F 29.3 °F 82% 29.88 in 1.2 mi North 11.5 mph - N/A Snow Light Snow
10:55 PM 34.3 °F 25.9 °F 29.3 °F 82% 29.88 in 3.0 mi NNW 11.5 mph - N/A   Overcast
11:15 PM 34.0 °F 24.2 °F 28.8 °F 81% 29.87 in 3.0 mi North 15.0 mph - N/A   Overcast
11:35 PM 33.8 °F 24.3 °F 28.9 °F 82% 29.88 in 3.0 mi NNW 13.8 mph - N/A   Overcast
11:55 PM 34.0 °F 26.0 °F 28.9 °F 82% 29.88 in 3.0 mi NNW 10.4 mph - N/A   Overcast